Flag for India Weather past 2 weeks in Amritsar, Punjab, India

Now
64 °F

Fog.


Feels Like: 64 °F
Forecast: 64 / 92 °F
Wind: No wind

Location: Amritsar Airport

Current Time: Oct 23, 2014 at 3:21:55 AM

Latest Report: Oct 23, 2014 at 2:30 AM


Visibility: 1 mi

Pressure: 29.95 "Hg

Humidity: 100%

Dew point: 64 °F

Location of AmritsarLocation

Historic Weather in Amritsar — Graph

°F

Amritsar temperature yesterday

Maximum temperature yesterday: 88 °F (at 2:00 PM)
Minimum temperature yesterday: 63 °F (at 6:00 AM)
Average temperature yesterday: 74 °F

Past Weeks' High & Low Weather Summary

 TemperatureHumidityPressure
High90 °F (Oct 12, 2:30 PM)100% (Oct 8, 10:00 PM)30.09 "Hg (Oct 8, 10:00 PM)
Low57 °F (Oct 15, 7:00 AM)35% (Oct 12, 4:00 PM)29.77 "Hg (Oct 11, 5:00 PM)
Average72 °F76%29.93 "Hg
* Reported Oct 8 1:30 AM — Oct 23 2:00 AM, Amritsar, Weather by CustomWeather, © 2014

Note: Actual official high and low records may vary slightly from our data, if they occured in-between our weather recording intervals... More about our weather records

Advertising

Amritsar weather history for previous 24 hours

 ConditionsComfort  
Time TempWeatherWind HumidityBarometerVisibility
2:00 AM
Oct 23
64 °FFog.No wind100%29.95 "Hg1 mi
1:30 AM66 °FFog.No wind88%29.95 "Hg1 mi
1:00 AM68 °FFog.No wind88%29.98 "Hg1 mi
12:30 AM66 °FFog.No wind94%29.98 "Hg1 mi
12:00 AM66 °FFog.No wind94%29.98 "Hg1 mi
11:30 PM
Oct 22
68 °FFog.No wind88%29.98 "Hg1 mi
11:00 PM68 °FFog.No wind88%29.98 "Hg2 mi
10:30 PM68 °FFog.No wind88%29.98 "Hg2 mi
10:00 PM70 °FFog.No wind78%29.98 "Hg2 mi
9:30 PM72 °FFog.No wind78%29.98 "Hg2 mi
9:00 PM72 °FFog.No wind78%29.98 "Hg2 mi
8:30 PM72 °FFog.No wind78%29.98 "Hg2 mi
8:00 PM73 °FHaze.No wind74%29.98 "Hg2 mi
7:30 PM77 °FHaze.5 mph61%29.98 "Hg2 mi
7:00 PM77 °FHaze.3 mph61%29.98 "Hg2 mi
6:30 PM77 °FHaze.5 mph65%29.98 "Hg3 mi
6:00 PM79 °FHaze.No wind61%29.98 "Hg3 mi
5:30 PM81 °FHaze.6 mph54%29.95 "Hg3 mi
5:00 PM84 °FHaze.5 mph45%29.95 "Hg3 mi
4:30 PM86 °FHaze.3 mph40%29.98 "Hg3 mi
4:00 PM86 °FHaze.6 mph38%29.98 "Hg3 mi
3:30 PM86 °FHaze.5 mph40%29.98 "Hg3 mi
2:30 PM86 °FHaze.5 mph43%29.98 "Hg3 mi
2:00 PM88 °FHaze.2 mph43%30.01 "Hg3 mi
1:30 PM86 °FHaze.2 mph46%30.01 "Hg3 mi
1:00 PM84 °FHaze.2 mph48%30.04 "Hg3 mi
12:30 PM84 °FHaze.3 mph45%30.07 "Hg3 mi
12:00 PM84 °FHaze.2 mph48%30.07 "Hg3 mi
11:30 AM84 °FHaze.2 mph48%30.09 "Hg3 mi
11:00 AM84 °FHaze.2 mph48%30.09 "Hg2 mi
10:30 AM82 °FHaze.No wind51%30.09 "Hg2 mi
10:00 AM81 °FHaze.No wind62%30.09 "Hg2 mi
9:30 AM77 °FHaze.No wind69%30.09 "Hg1 mi
9:00 AM73 °FFog.1 mph83%30.09 "Hg1 mi
8:30 AM70 °FFog.No wind88%30.07 "Hg1 mi
8:00 AM68 °FFog.No wind94%30.07 "Hg1 mi
7:30 AM64 °FFog.No wind100%30.07 "Hg1 mi
7:00 AM64 °FFog.No wind100%30.04 "Hg1 mi
6:00 AM63 °FFog.No wind100%30.04 "Hg1 mi
5:30 AM64 °FFog.No wind100%30.01 "Hg1 mi
5:00 AM64 °FFog.No wind100%30.01 "Hg1 mi
4:30 AM64 °FFog.5 mph94%30.01 "Hg1 mi
4:00 AM64 °FFog.1 mph94%30.01 "Hg1 mi
3:30 AM64 °FFog.No wind94%30.01 "Hg1 mi
3:00 AM66 °FFog.No wind88%30.01 "Hg1 mi
Weather by CustomWeather, © 2014

See weather overviewHow to use our weather pages